{"data":{"norad_id":25398,"intl_designator":"1998-043E","name":"WESTPAC","alt_names":[],"object_type":"PAYLOAD","status":"ACTIVE","operator":null,"country":"AUS","launch_date":"1998-07-10","launch_site_code":"TYMSC","launch_vehicle":null,"mission":null,"orbit_class":"UNKNOWN","rcs_meters":0.165,"size_class":null,"mass_kg":null,"dimensions":null,"purposes":[],"wikipedia_slug":null,"has_3d_model":false,"image_url":null,"decayed_at":null,"tle_current":{"epoch":"2026-05-25T04:56:05.135136Z","epoch_age_seconds":64248,"freshness":"FRESH","line1":"1 25398U 98043E   26145.20561499 -.00000013  00000+0  14769-4 0  9990","line2":"2 25398  99.0127 130.7112 0000333 302.1278  57.9867 14.23051891447678","mean_motion":14.23051891,"eccentricity":3.33e-5,"inclination_deg":99.0127,"raan_deg":130.7112,"arg_perigee_deg":302.1278,"mean_anomaly_deg":57.9867,"bstar":1.4769e-5,"rev_number":44767,"period_min":101.19096914928,"perigee_km":814.81045756096,"apogee_km":815.28952381454,"semimajor_km":7193.1869906877,"source":"CELESTRAK","updated_at":"2026-05-25T13:37:54.968504Z"}}}